Regional Weather Roundup
Issued by NWS

Home | Current Version | Previous Version | Graphics & Text | Print | Product List | Glossary On
Versions: 1 2 3 4 5 6 7 8 9 10 11 12 13 14 15 16 17 18 19 20 21 22 23 24 25 26 27 28 29 30 31 32 33 34 35 36 37 38 39 40 41 42 43 44 45 46 47 48 49 50
000
ASUS43 KLOT 201510
RWRIL

ILLINOIS REGIONAL WEATHER ROUNDUP
NATIONAL WEATHER SERVICE CHICAGO/ROMEOVILLE IL
1000 AM CDT SAT SEP 20 2014

NOTE: "FAIR" INDICATES FEW OR NO CLOUDS BELOW 12,000 FEET WITH NO
SIGNIFICANT WEATHER AND/OR OBSTRUCTIONS TO VISIBILITY.

* THESE STATIONS ARE NOT UNDER NWS QUALITY CONTROL. THEY ALSO MAY NOT
  REPORT WEATHER SUCH AS PRECIPITATION OR FOG.

ILZ001-002-007-009-015-016-024-201600-
NORTHWEST ILLINOIS

CITY           SKY/WX    TMP DP  RH WIND       PRES   REMARKS
MOLINE         CLOUDY    68  64  87 VRB6      29.85S
STERLING*      PTSUNNY   72  63  73 SW6       29.86F
SAVANNA*       CLOUDY    69  63  83 S7        29.85F
$$

ILZ003-004-008-010-011-017-018-201600-
NORTH CENTRAL ILLINOIS

CITY           SKY/WX    TMP DP  RH WIND       PRES   REMARKS
ROCKFORD       PTSUNNY   69  61  75 SW13      29.87R
FREEPORT*      PTSUNNY   68  64  86 SW14G20   29.88R
ROCHELLE*      MOSUNNY   69  61  75 SW14G21   29.87R
DE KALB*       MOSUNNY   67  61  81 SW18      29.87S
PERU*          PTSUNNY   71  63  77 SW20      29.87F
$$

ILZ005-006-012>014-019>023-201600-
NORTHEAST ILLINOIS

CITY           SKY/WX    TMP DP  RH WIND       PRES   REMARKS
CHICAGO-OHARE  CLOUDY    69  60  73 SW13G23   29.86F
CHICAGO-MIDWAY CLOUDY    70  61  73 S18       29.87F
AURORA         PTSUNNY   68  60  75 S12       29.87F
LANSING*       CLOUDY    69  61  76 SW14      29.91F
JOLIET*        CLOUDY    69  60  72 SW9       29.89F
WAUKEGAN       CLOUDY    67  59  75 SW13G20   29.83R
DUPAGE AIRPORT PTSUNNY   69  60  73 S13       29.86F
KANKAKEE*      CLOUDY    69  63  79 S13G18    29.94F
WHEELING       PTSUNNY   70  60  70 S13       29.86F
MORRIS*        CLOUDY    71  62  75 S13G21    29.89F
ROMEOVILLE*    CLOUDY    68  60  74 SW15      29.88F
NORTHERLY ISL    N/A     68  58  70 S13         N/A
$$

LMZ740>746-201600-
SOUTHERN LAKE MICHIGAN

STATION/POSITION SKY/WX   TEMP    WIND        PRES    VSBY  WAVE
                          AIR SEA DIR/SP/G                  HT/PER
                          (F)     (DEG/KT/KT) (MB)    (MI)  (FT/S)
SOUTHERN BUOY              65 63  220/ 21/ 25 1010.1R         5/ 6
WAUKEGAN HARBOR            67     250/ 17/ 23   N/A
HARRISON CRIB              66     210/ 26/ 30   N/A
BURNHAM HARBOR             69     220/ 10/ 15   N/A
CALUMET HARBOR             68     200/ 14/ 18 1011.0F
MICHIGAN CITY              67     170/ 18/ 22   N/A
MICHIGAN CITY 6N           68 65  200/ 19/ 25   N/A           3/ 4
ST. JOSEPH                 67 65  180/ 17/ 23   N/A           4/ 5
$$

ILZ025>027-034>036-040-047-049-050-058-095>099-201600-
WEST-CENTRAL ILLINOIS

CITY           SKY/WX    TMP DP  RH WIND       PRES   REMARKS
QUINCY         MOSUNNY   68  64  87 SW12      29.97F
GALESBURG*     CLOUDY    67  64  91 S15       29.89F
MACOMB*        PTSUNNY   68  64  86 SW10G17   29.95F
JACKSONVILLE*  MOSUNNY   75  67  76 SW9G17    29.99F
PITTSFIELD*    CLOUDY    73  66  79 W12G18    30.02S
$$

ILZ028>032-037-038-041>044-048-051>054-059>061-201600-
CENTRAL ILLINOIS

CITY           SKY/WX    TMP DP  RH WIND       PRES   REMARKS
PONTIAC        PTSUNNY   72  64  78 SW10      29.93F
DECATUR        PTSUNNY   72  63  73 SW13      30.02F
PEORIA         CLOUDY    68  62  81 SW12      29.93F
LACON*         CLOUDY    67  62  84 S15G21    29.89F
LINCOLN*       PTSUNNY   74  65  72 SW6       29.95F
SPRINGFIELD    PTSUNNY   72  64  76 SW8       30.00F
TAYLORVILLE    PTSUNNY   70  63  78 SW8       30.03S
$$

ILZ033-039-045-046-055>057-062-063-201600-
EAST-CENTRAL ILLINOIS

CITY           SKY/WX    TMP DP  RH WIND       PRES   REMARKS
CHAMPAIGN      CLOUDY    72  62  71 SW12      30.02F
DANVILLE*      CLOUDY    69  60  72 SW12      30.00S
RANTOUL*       CLOUDY    73  60  65 SW10G17   30.01S
MATTOON        PTSUNNY   70  61  73 SW12      30.04S
PARIS*         PTSUNNY   72  62  70 SW9       30.06R
$$

ILZ079-100>102-201600-
SOUTHWEST ILLINOIS

CITY           SKY/WX    TMP DP  RH WIND       PRES   REMARKS
ALTON          SUNNY     72  64  78 S12G17    30.04S
BELLEVILLE     SUNNY     74  66  77 S2        30.04F
CAHOKIA*       SUNNY     73  65  75 SW9       30.04F
SPARTA*        MOSUNNY   75  67  75 SW7       30.07S
$$

ILZ064>066-069>071-074>076-080>082-084>086-088>090-092>094-201600-
SOUTH-CENTRAL ILLINOIS

CITY           SKY/WX    TMP DP  RH WIND       PRES   REMARKS
CARBONDALE     PTSUNNY   75  67  76 SW12      30.07S
CAIRO*         SUNNY     75  72  88 S7        30.09F
EFFINGHAM*     CLOUDY    70  62  75 S6        30.05S
MT. VERNON     MOSUNNY   73  66  78 SW9       30.07F
CENTRALIA*     MOSUNNY   74  65  73 SW10      30.06S
SALEM*         MOSUNNY   74  68  79 SW10      30.06S
METROPOLIS*    SUNNY     78  69  73 S6        30.08S HX  80
$$

ILZ067-068-072-073-078-083-087-091-201600-
SOUTHEAST ILLINOIS

CITY           SKY/WX    TMP DP  RH WIND       PRES   REMARKS
LAWRENCEVILLE  SUNNY     75  64  68 SW9       30.07S
FLORA*         SUNNY     74  64  70 SW10      30.06S
FAIRFIELD*     MOSUNNY  N/A N/A N/A S6        30.07R
HARRISBURG*    SUNNY     76  69  78 SW8       30.08F
ROBINSON*      MOSUNNY   76  65  70 SW10      30.07S
CARMI*         SUNNY     79  69  71 SW10      30.07S HX  82
$$

ABBREVIATIONS USED IN REMARKS
   TC - TEMPERATURE IN CELSIUS
  WCI - WIND CHILL INDEX
   HX - HEAT INDEX
  VSB - VISIBILITY
$$



USA.gov is the U.S. government's official web portal to all federal, state and local government web resources and services.